sat.trackr.live / text

‹ back to catalog

STARLINK-30100

NORAD 57623 · 2023-119X

PAYLOAD ACTIVE UNKNOWN

§ Identity

Operator
Country
US
Launch date
2023-08-11
Launch site
AFETR
Launch vehicle
Mass (kg)
RCS (m²)

Purposes: comms

External: N2YO · Heavens-Above · Gunter

§ Orbital elements

Epoch: 2026-05-24T23:30:50.868288Z

Period
94.27 min
Inclination
43.0031°
Eccentricity
0.0000938
Mean motion
15.27572938 rev/d
Perigee alt
482.4 km
Apogee alt
483.7 km
Semi-major
6,861.2 km
B*
-5.0784e-5
RAAN
10.7582°
Arg perigee
249.8518°
Mean anomaly
110.2233°
Rev number
15,475

§ Raw data

STARLINK-301001 57623U 23119X   26144.97975542 -.00001659  00000+0 -50784-4 0  99942 57623  43.0031  10.7582 0000938 249.8518 110.2233 15.27572938154759

JSON: /api/v1/satellites/57623 · /tle

For live sub-satellite position, see the globe view (requires WebGL).

§ Visibility from observer

Set your observer location to see the next 7 days of passes ≥ 10°. The values pass through the URL so the page stays shareable.

No JS? Fill the form by hand. The geolocation button needs JavaScript.